Tracking 27086 objects as of 22-Mar-2023
HD Live streaming from Space Station
objects crossing your sky now

STARLINK-1994

Track STARLINK-1994 now!
10-day predictions
STARLINK-1994 is classified as:


NORAD ID: 47589
Int'l Code: 2021-009AT
Perigee: 553.6 km
Apogee: 555.2 km
Inclination: 53.1 °
Period: 95.6 minutes
Semi major axis: 6925 km
RCS: Unknown
Launch date: February 4, 2021
Source: United States (US)
Launch site: AIR FORCE EASTERN TEST RANGE (AFETR)
Your satellite tracking list
Your tracking list is empty




NASA's NSSDC Master Catalog

Two Line Element Set (TLE):
1 47589U 21009AT  23080.57299401  .00014881  00000-0  10163-2 0  9990
2 47589  53.0529 208.4068 0001164  76.6445 283.4673 15.06381182117996
Source of the keplerian elements: AFSPC